Lynchburg, VA

1:39 AM EDT on April 24, 2018 (GMT -0400)
Lynchburg Regional-Glenn

Weather History for KLYH - August, 2013

Change the Weather History Date:

Wednesday, August 14, 2013

  Actual Average Record
Temperature  
Mean Temperature 68 °F 74 °F  
Max Temperature 78 °F 86 °F 99 °F (1943)
Min Temperature 58 °F 63 °F 48 °F (1964)
Degree Days  
Heating Degree Days 0 0  
Month to date heating degree days 0 0  
Since 1 June heating degree days 1 15  
Since 1 July heating degree days 0 1  
Cooling Degree Days 3 10  
Month to date cooling degree days 154 140  
Year to date cooling degree days 921 754  
Since 1 June cooling degree days 786 672  
Growing Degree Days 18 (Base 50)    
Moisture  
Dew Point 56 °F    
Average Humidity 64    
Maximum Humidity 90    
Minimum Humidity 38    
Precipitation  
Precipitation 0.00 in 0.10 in 3.83 in (1940)
Month to date precipitation 1.35 1.50  
Year to date precipitation 31.52 26.17  
Snow  
Snow 0.00 in - - ()
Month to date snowfall 0.0  
Since 1 June snowfall 0.0  
Since 1 July snowfall 0.0  
Snow Depth 0.00 in    
Sea Level Pressure  
Sea Level Pressure 30.00 in    
Wind  
Wind Speed 4 mph (NNE)    
Max Wind Speed 10 mph    
Max Gust Speed 15 mph    
Visibility 10 miles    
Events      
T = Trace of Precipitation, MM = Missing Value Source: NWS Daily Summary

Daily Weather History Graph

Daily Weather History Graph

Search for Another Location

Airport or City:

Astronomy

Aug. 14, 2013 Rise Set
Actual Time 6:32 AM EDT 8:09 PM EDT
Civil Twilight 6:04 AM EDT 8:37 PM EDT
Nautical Twilight 5:31 AM EDT 9:10 PM EDT
Astronomical Twilight 4:55 AM EDT 9:46 PM EDT
Moon 2:18 PM EDT (8/14) No Moon Set
Length of Visible Light 14h 32m
Length of Day
13h 37m
First Quarter, 52% of the Moon is Illuminated
Aug 14
First Quarter
Aug 20
Full
Aug 28
Last Quarter
Sep 5
New
Sep 12
First Quarter

Hourly Weather History & Observations

Time (EDT) Temp. Dew Point Humidity Pressure Visibility Wind Dir Wind Speed Gust Speed Precip Events Conditions
12:54 AM 73.9 °F 62.1 °F 66% 29.86 in 10.0 mi WNW 3.5 mph - N/A   Overcast
1:54 AM 72.0 °F 62.1 °F 71% 29.85 in 10.0 mi Variable 4.6 mph - N/A   Overcast
2:54 AM 72.0 °F 62.1 °F 71% 29.87 in 10.0 mi Calm Calm - N/A   Overcast
3:54 AM 71.1 °F 62.1 °F 73% 29.88 in 10.0 mi NW 4.6 mph - N/A   Overcast
4:54 AM 70.0 °F 62.1 °F 76% 29.88 in 10.0 mi Calm Calm - N/A   Mostly Cloudy
5:54 AM 68.0 °F 62.1 °F 81% 29.91 in 10.0 mi Calm Calm - N/A   Mostly Cloudy
6:54 AM 66.9 °F 60.1 °F 79% 29.94 in 10.0 mi North 3.5 mph - N/A   Overcast
7:54 AM 68.0 °F 59.0 °F 73% 29.97 in 10.0 mi NNE 6.9 mph - N/A   Clear
8:54 AM 69.1 °F 55.9 °F 63% 30.00 in 10.0 mi North 9.2 mph - N/A   Clear
9:54 AM 71.1 °F 53.1 °F 53% 30.01 in 10.0 mi North 9.2 mph - N/A   Clear
10:54 AM 71.1 °F 51.1 °F 49% 30.03 in 10.0 mi Variable 4.6 mph - N/A   Clear
11:54 AM 72.0 °F 50.0 °F 46% 30.04 in 10.0 mi NNE 5.8 mph - N/A   Clear
12:54 PM 73.0 °F 46.0 °F 38% 30.03 in 10.0 mi Variable 5.8 mph - N/A   Clear
1:54 PM 73.9 °F 48.0 °F 40% 30.03 in 10.0 mi Variable 5.8 mph - N/A   Clear
2:54 PM 75.9 °F 48.0 °F 37% 30.01 in 10.0 mi Calm Calm - N/A   Clear
3:54 PM 75.9 °F 48.9 °F 38% 30.01 in 10.0 mi NNE 9.2 mph - N/A   Clear
4:54 PM 77.0 °F 50.0 °F 39% 30.01 in 10.0 mi NNE 8.1 mph - N/A   Partly Cloudy
5:54 PM 75.0 °F 54.0 °F 48% 30.01 in 10.0 mi East 4.6 mph - N/A   Mostly Cloudy
6:54 PM 72.0 °F 55.9 °F 57% 30.03 in 10.0 mi East 3.5 mph - N/A   Clear
7:54 PM 70.0 °F 57.0 °F 63% 30.05 in 10.0 mi ENE 3.5 mph - N/A   Clear
8:54 PM 66.0 °F 54.0 °F 65% 30.07 in 10.0 mi NE 4.6 mph - N/A   Clear
9:54 PM 63.0 °F 57.0 °F 81% 30.11 in 10.0 mi Calm Calm - N/A   Partly Cloudy
10:54 PM 60.1 °F 57.0 °F 90% 30.12 in 10.0 mi Calm Calm - N/A   Mostly Cloudy
11:54 PM 61.0 °F 57.0 °F 87% 30.15 in 10.0 mi Calm Calm - N/A   Overcast